Wind_Speed
48 47 46 46 45 45 45 45 45 44 43 42 42 41 41 39 38 37 36 35 34 32 31 29 28 28 27 27 26 26 26 25 25 25 25 25 25 25
48 48 47 46 45 45 45 45 44 43 42 42 41 40 39 38 37 36 35 34 32 30 29 28 28 27 26 26 26 25 25 25 25 25 25 25 25 25
48 47 47 46 46 45 45 44 44 43 42 41 40 39 38 37 36 35 34 32 30 29 28 27 27 26 26 25 25 25 25 25 25 26 26 26 26 26
46 46 46 45 45 45 44 44 44 43 42 41 39 38 37 35 34 33 32 31 30 28 28 27 27 26 26 26 25 25 25 26 26 26 27 27 28 28
46 45 45 45 45 44 44 43 43 42 41 40 39 37 36 35 33 32 31 30 29 28 27 27 27 26 26 26 26 26 26 27 27 28 28 29 30 30
44 44 43 43 43 43 42 41 41 40 40 39 37 35 34 32 31 31 30 29 28 28 27 27 26 26 26 26 27 27 27 28 28 29 30 30 31 31
43 43 42 42 42 41 40 40 39 38 37 36 34 32 31 30 30 30 29 28 28 27 27 26 26 26 26 27 27 28 28 29 29 30 31 31 32 33
41 41 41 41 40 39 38 38 36 35 34 33 32 31 30 30 29 28 28 27 27 27 27 26 27 27 27 28 28 29 29 30 31 31 32 32 33 34
40 39 39 38 37 37 36 35 34 33 32 31 30 30 29 28 28 28 27 28 27 27 27 27 27 27 28 29 29 30 30 31 31 32 32 33 34 35
38 37 36 35 35 34 34 33 32 32 31 30 29 29 28 28 28 28 28 28 28 27 27 28 28 28 29 30 30 31 31 31 32 32 32 33 34 34
36 34 34 34 33 33 32 32 31 30 29 29 28 28 27 28 28 28 28 28 28 28 28 28 29 29 30 31 31 31 32 32 33 33 33 34 34 35
33 33 33 33 32 31 30 30 29 29 28 28 28 28 27 27 27 27 28 28 28 29 29 29 30 30 31 32 32 32 33 33 33 34 34 35 35 36
32 32 31 31 30 29 29 29 28 28 28 28 28 27 27 27 27 27 28 28 29 29 29 30 30 31 32 33 33 34 34 34 34 35 35 36 37 37
31 31 30 29 29 29 28 28 28 28 28 28 28 28 28 28 28 28 28 29 29 30 30 31 31 32 33 34 35 35 35 35 36 36 37 37 38 38
30 30 29 29 28 28 28 27 28 28 28 28 28 28 28 29 29 29 30 30 30 31 31 32 33 34 34 35 35 35 36 36 37 37 37 38 38 38
29 29 29 29 28 28 28 28 28 28 28 28 28 29 29 30 30 30 31 32 32 32 33 33 34 35 35 35 36 36 37 37 37 37 38 38 38 38
30 30 29 29 29 28 28 28 29 29 29 29 29 30 30 31 31 32 32 33 33 34 34 35 35 35 36 36 36 37 37 37 37 37 38 39 39 38
30 30 30 30 29 29 29 29 29 30 30 30 31 31 31 32 32 33 33 34 34 35 35 36 36 36 36 37 37 37 38 38 38 38 38 38 38 38
30 31 31 31 31 31 30 30 31 31 31 32 32 32 33 33 33 34 34 35 35 36 36 37 37 37 37 37 38 38 38 38 38 38 38 38 38 38
31 31 32 32 32 32 32 32 32 32 33 33 33 33 33 34 35 35 35 36 36 37 37 37 37 37 37 37 38 38 38 37 37 38 38 38 38 38
31 31 31 32 32 32 32 33 34 34 34 34 34 34 34 35 36 36 37 37 37 37 38 38 38 38 38 38 37 38 39 38 37 38 38 37 38 38
31 31 32 32 33 33 34 34 34 35 35 35 35 36 36 37 37 38 38 38 38 39 39 39 39 39 39 38 38 38 39 39 38 38 38 37 37 36
33 33 33 33 34 34 35 35 35 35 36 36 37 37 38 38 38 39 39 39 39 40 40 40 40 40 39 39 39 39 39 39 39 39 39 38 36 35
Wind_Direction
282 282 283 283 283 283 284 285 285 286 286 286 286 286 287 287 287 288 288 288 289 288 288 287 287 287 287 287 287 287 287 286 285 284 283 282 281 279
280 280 281 281 282 283 283 284 284 285 285 285 284 284 284 285 285 286 287 287 286 286 287 286 286 286 286 287 287 287 285 284 283 283 283 282 281 279
279 280 281 281 281 281 282 281 282 283 283 283 283 283 283 283 284 285 285 285 285 285 285 285 285 286 286 286 286 286 285 284 284 284 284 283 281 279
279 279 279 280 280 280 280 280 281 281 282 282 281 280 280 281 282 283 284 284 283 283 283 283 284 285 285 286 286 286 285 285 285 284 284 283 281 279
279 279 279 279 279 279 279 280 280 280 280 280 280 279 278 278 280 281 281 282 282 282 282 282 283 284 285 286 286 285 285 286 286 285 284 283 281 280
278 278 278 278 278 278 278 279 279 279 278 278 278 277 276 277 278 278 279 280 280 281 281 281 282 284 285 286 287 287 287 287 287 286 285 284 282 281
277 277 277 277 277 277 277 278 278 277 277 276 275 275 274 275 276 277 277 278 279 279 279 280 282 284 285 286 288 289 289 289 288 288 287 286 284 282
277 277 277 277 277 276 276 276 275 275 275 274 273 273 273 274 275 275 276 277 278 278 279 281 283 284 285 286 288 289 290 290 289 289 288 287 286 284
277 277 277 276 276 275 275 274 273 273 273 273 272 271 271 273 273 274 275 276 277 278 279 281 282 283 285 287 289 290 290 291 291 290 290 289 288 286
276 276 275 275 275 274 273 272 271 271 271 271 269 270 271 272 273 274 275 275 276 278 279 281 282 284 286 288 290 291 291 292 292 292 292 291 290 289
274 274 274 274 274 273 272 270 270 270 270 269 268 269 271 272 273 274 274 275 276 278 279 281 283 285 287 288 290 291 292 293 293 292 293 293 292 291
273 273 274 273 273 272 271 270 268 268 268 268 269 270 271 272 273 274 275 276 277 278 280 281 284 286 288 289 290 291 292 293 293 292 293 294 293 293
273 273 273 272 271 270 270 269 268 269 268 268 269 270 271 272 274 275 275 276 278 279 281 283 285 287 288 290 291 291 292 293 293 293 294 294 294 294
272 271 271 270 270 269 270 269 269 270 269 269 270 270 271 273 274 274 276 278 279 280 281 284 286 288 289 290 291 292 293 293 294 293 294 295 295 295
270 270 269 269 269 269 269 270 271 271 271 271 271 271 272 273 274 276 278 279 280 281 282 285 287 289 290 290 292 292 293 294 295 294 295 296 296 296
269 269 268 269 270 270 269 269 270 271 271 272 273 273 273 274 276 277 279 280 281 282 283 285 288 289 290 291 292 293 294 295 296 296 296 296 297 297
268 268 268 268 269 269 269 269 270 270 271 272 274 274 275 276 277 279 280 280 282 283 285 286 288 289 290 291 292 293 295 296 296 296 296 297 297 297
267 267 268 268 268 269 270 270 270 270 271 273 274 275 276 276 278 279 280 281 282 284 286 287 288 289 290 291 292 294 295 296 297 296 296 296 297 297
267 267 268 268 269 269 270 270 271 271 272 273 274 275 276 277 278 279 280 282 283 284 286 287 288 289 290 291 292 294 295 297 297 297 297 297 296 297
269 269 269 269 268 269 270 271 271 272 272 273 274 275 276 277 278 279 281 282 283 285 286 288 288 289 290 291 292 294 295 297 298 298 298 297 297 297
270 270 270 269 269 270 270 271 272 272 273 274 275 275 276 277 278 280 281 282 283 285 287 288 288 289 290 290 291 293 295 297 298 298 298 297 298 298
271 271 271 271 271 271 272 272 272 273 274 274 275 276 276 277 278 280 281 282 283 285 286 287 288 288 289 289 291 293 294 296 297 298 297 297 297 297
271 271 272 272 272 273 273 273 273 273 274 275 276 276 277 278 279 280 281 282 283 284 285 286 287 288 288 288 290 292 293 295 296 297 297 297 297 295
Height
5739 5738 5736 5734 5732 5730 5728 5726 5724 5722 5721 5718 5716 5713 5711 5709 5707 5705 5703 5701 5699 5697 5696 5694 5692 5691 5689 5688 5687 5685 5684 5683 5681 5680 5679 5678 5677 5677
5727 5726 5724 5723 5721 5719 5717 5715 5712 5711 5709 5708 5706 5703 5701 5699 5697 5695 5694 5692 5690 5689 5687 5686 5685 5683 5682 5680 5679 5678 5677 5675 5674 5673 5672 5671 5670 5669
5715 5714 5712 5711 5709 5707 5705 5703 5701 5700 5698 5697 5695 5693 5691 5689 5688 5686 5685 5683 5682 5680 5679 5678 5677 5675 5674 5673 5672 5670 5669 5668 5667 5666 5664 5663 5662 5662
5703 5702 5700 5699 5698 5696 5694 5692 5691 5689 5687 5686 5685 5683 5681 5680 5679 5677 5676 5675 5673 5672 5671 5670 5669 5668 5666 5665 5664 5663 5662 5661 5659 5658 5657 5655 5654 5654
5691 5690 5689 5687 5686 5684 5683 5681 5679 5678 5676 5675 5674 5673 5672 5671 5670 5668 5667 5666 5665 5664 5663 5662 5661 5660 5659 5657 5656 5655 5654 5653 5651 5650 5648 5647 5646 5645
5679 5678 5677 5675 5674 5673 5671 5670 5668 5667 5666 5665 5664 5663 5662 5661 5660 5659 5659 5658 5657 5656 5655 5654 5653 5652 5651 5650 5648 5647 5645 5644 5642 5641 5639 5638 5637 5635
5668 5666 5665 5664 5663 5661 5660 5659 5658 5657 5656 5655 5654 5653 5652 5652 5651 5651 5650 5649 5649 5648 5647 5646 5645 5644 5643 5641 5640 5638 5637 5635 5633 5631 5630 5628 5626 5625
5656 5655 5654 5653 5652 5650 5649 5648 5647 5647 5646 5645 5644 5644 5644 5643 5642 5642 5641 5641 5640 5640 5639 5638 5637 5636 5634 5633 5631 5630 5628 5626 5624 5622 5620 5617 5616 5614
5645 5644 5643 5642 5641 5640 5639 5638 5637 5637 5636 5636 5636 5635 5635 5634 5634 5634 5633 5632 5632 5631 5630 5630 5629 5627 5626 5624 5622 5620 5618 5616 5614 5611 5609 5607 5604 5602
5634 5633 5633 5632 5631 5630 5629 5628 5628 5628 5627 5627 5627 5626 5626 5626 5626 5625 5624 5624 5623 5623 5622 5621 5620 5619 5617 5615 5613 5611 5609 5606 5604 5601 5599 5596 5593 5591
5624 5623 5623 5622 5621 5620 5620 5619 5619 5619 5618 5618 5618 5618 5617 5617 5617 5617 5616 5615 5615 5614 5613 5612 5611 5609 5608 5606 5603 5601 5599 5596 5593 5591 5588 5585 5582 5579
5614 5614 5613 5613 5612 5611 5611 5610 5610 5610 5610 5609 5609 5609 5609 5609 5608 5608 5607 5607 5606 5605 5604 5603 5601 5600 5598 5596 5594 5591 5588 5586 5583 5580 5577 5574 5571 5568
5605 5605 5604 5603 5603 5603 5602 5602 5602 5602 5601 5601 5601 5601 5600 5600 5600 5599 5599 5598 5597 5596 5595 5594 5592 5590 5588 5586 5583 5581 5578 5575 5572 5569 5566 5563 5559 5556
5596 5595 5595 5595 5594 5594 5594 5593 5593 5593 5593 5593 5593 5592 5592 5592 5591 5590 5590 5589 5588 5587 5585 5584 5582 5580 5578 5575 5572 5570 5567 5564 5561 5558 5554 5551 5547 5544
5587 5587 5586 5586 5586 5585 5585 5585 5585 5585 5585 5584 5584 5584 5583 5583 5582 5581 5580 5579 5578 5577 5576 5574 5572 5570 5567 5565 5562 5559 5556 5553 5549 5546 5542 5539 5535 5532
5578 5578 5578 5578 5577 5577 5577 5577 5576 5576 5576 5576 5575 5575 5574 5574 5573 5572 5571 5570 5569 5567 5566 5564 5561 5559 5557 5554 5551 5548 5544 5541 5538 5534 5530 5526 5523 5519
5569 5569 5569 5569 5569 5568 5568 5568 5568 5568 5567 5567 5566 5566 5565 5564 5563 5562 5561 5560 5558 5557 5555 5553 5551 5548 5545 5543 5540 5536 5533 5529 5526 5522 5518 5514 5511 5507
5560 5560 5560 5560 5560 5560 5559 5559 5559 5558 5558 5558 5557 5556 5555 5554 5553 5552 5551 5549 5548 5546 5544 5542 5540 5537 5534 5531 5529 5525 5522 5518 5514 5511 5507 5503 5499 5495
5551 5551 5550 5550 5550 5550 5550 5550 5549 5549 5549 5548 5547 5546 5545 5544 5543 5542 5540 5539 5537 5535 5533 5531 5528 5526 5523 5520 5517 5513 5510 5506 5502 5499 5495 5491 5487 5483
5541 5541 5541 5540 5540 5540 5540 5540 5539 5539 5538 5538 5537 5536 5535 5534 5532 5531 5529 5527 5526 5523 5521 5519 5517 5514 5511 5509 5505 5501 5498 5495 5491 5487 5483 5480 5476 5472
5531 5531 5531 5530 5530 5530 5530 5529 5529 5528 5528 5527 5526 5525 5524 5522 5521 5519 5518 5516 5514 5512 5510 5507 5505 5503 5500 5497 5494 5490 5486 5483 5480 5476 5472 5469 5465 5461
5521 5521 5521 5520 5520 5519 5519 5518 5518 5517 5516 5516 5515 5514 5512 5511 5509 5508 5506 5504 5502 5500 5498 5495 5492 5490 5488 5485 5482 5478 5475 5472 5468 5465 5461 5458 5454 5450
5511 5511 5510 5510 5509 5508 5508 5507 5507 5506 5505 5504 5503 5502 5500 5499 5497 5496 5494 5492 5490 5488 5485 5483 5480 5478 5475 5473 5470 5467 5463 5460 5456 5453 5450 5446 5444 5440